When you browse on this site, cookies collect data to enhance your experience and personalize the content and advertising you see.
Visit our Privacy Policy to learn more. By continuing to use the site, you agree to this use of cookies and data.
  • In Lithuania
  • List of Countries
  • For 7 days
  • Water Temperature
  • Weather Map
  • Weather Widgets
  • user-avatar
    Login

    Hourly Weather Verhnie Gorki

    Today, 21 August, Wednesday

    Time Temperature Precipitation Wind Pressure Humidity
    00:00 +15°C° 0 mm 1 mps 745 mmHg 96%
    01:00 +14°C° 0 mm 1 mps 745 mmHg 96%
    02:00 +14°C° 0 mm 1 mps 746 mmHg 97%
    03:00 +14°C° 0 mm 1 mps 746 mmHg 95%
    04:00 +14°C° 0 mm 1 mps 746 mmHg 94%
    05:00 +14°C° 0 mm 1 mps 746 mmHg 93%
    06:00 +15°C° 0 mm 1 mps 746 mmHg 90%
    07:00 +16°C° 0 mm 1 mps 746 mmHg 86%
    08:00 +19°C° 0 mm 1 mps 746 mmHg 83%
    09:00 +20°C° 0 mm 1 mps 746 mmHg 77%
    10:00 +21°C° 0 mm 1 mps 746 mmHg 71%
    11:00 +23°C° 0 mm 1 mps 746 mmHg 65%
    12:00 +23°C° 0 mm 2 mps 746 mmHg 66%
    13:00 +24°C° 0 mm 2 mps 745 mmHg 67%
    14:00 +24°C° 0 mm 2 mps 745 mmHg 68%
    15:00 +24°C° 0 mm 3 mps 744 mmHg 72%
    16:00 +24°C° 0 mm 3 mps 744 mmHg 76%
    17:00 +22°C° 0 mm 3 mps 743 mmHg 80%
    18:00 +22°C° 1.2 mm 3 mps 743 mmHg 85%
    19:00 +21°C° 1.2 mm 3 mps 742 mmHg 91%
    20:00 +20°C° 1.2 mm 3 mps 741 mmHg 96%
    21:00 +20°C° 0.6 mm 3 mps 741 mmHg 96%
    22:00 +20°C° 0.6 mm 3 mps 741 mmHg 96%
    23:00 +20°C° 0.6 mm 3 mps 741 mmHg 96%

    Tomorrow, 22 August, Thursday

    Time Temperature Precipitation Wind Pressure Humidity
    00:00 +19°C° 1 mm 3 mps 741 mmHg 96%
    01:00 +19°C° 1 mm 3 mps 741 mmHg 97%
    02:00 +18°C° 1 mm 3 mps 742 mmHg 97%
    03:00 +17°C° 0.7 mm 3 mps 742 mmHg 97%
    04:00 +16°C° 0.7 mm 3 mps 742 mmHg 97%
    05:00 +14°C° 0.7 mm 3 mps 742 mmHg 97%
    06:00 +14°C° 0 mm 3 mps 743 mmHg 95%
    07:00 +14°C° 0 mm 4 mps 744 mmHg 93%
    08:00 +14°C° 0 mm 4 mps 744 mmHg 92%
    09:00 +15°C° 0 mm 4 mps 745 mmHg 84%
    10:00 +17°C° 0 mm 4 mps 745 mmHg 75%
    11:00 +19°C° 0 mm 4 mps 745 mmHg 67%
    12:00 +19°C° 0 mm 4 mps 745 mmHg 64%
    13:00 +20°C° 0 mm 4 mps 746 mmHg 60%
    14:00 +21°C° 0 mm 3 mps 746 mmHg 57%
    15:00 +20°C° 0 mm 3 mps 746 mmHg 60%
    16:00 +20°C° 0 mm 2 mps 746 mmHg 62%
    17:00 +20°C° 0 mm 2 mps 746 mmHg 65%
    18:00 +18°C° 0 mm 2 mps 746 mmHg 71%
    19:00 +16°C° 0 mm 2 mps 746 mmHg 78%
    20:00 +14°C° 0 mm 1 mps 746 mmHg 84%
    21:00 +13°C° 0 mm 1 mps 747 mmHg 86%
    22:00 +13°C° 0 mm 1 mps 747 mmHg 88%
    23:00 +12°C° 0 mm 1 mps 747 mmHg 90%

    Day after tomorrow, 23 August, Friday

    Time Temperature Precipitation Wind Pressure Humidity
    00:00 +12°C° 0 mm 1 mps 747 mmHg 91%
    01:00 +12°C° 0 mm 1 mps 747 mmHg 93%
    02:00 +12°C° 0 mm 1 mps 747 mmHg 94%
    03:00 +11°C° 0 mm 1 mps 748 mmHg 95%
    04:00 +11°C° 0 mm 1 mps 748 mmHg 95%
    05:00 +11°C° 0 mm 1 mps 748 mmHg 96%
    06:00 +13°C° 0 mm 1 mps 748 mmHg 89%
    07:00 +15°C° 0 mm 1 mps 748 mmHg 82%
    08:00 +16°C° 0 mm 1 mps 748 mmHg 75%
    09:00 +18°C° 0 mm 2 mps 748 mmHg 67%
    10:00 +19°C° 0 mm 2 mps 748 mmHg 60%
    11:00 +20°C° 0 mm 3 mps 748 mmHg 53%
    12:00 +20°C° 0 mm 3 mps 748 mmHg 51%
    13:00 +21°C° 0 mm 2 mps 748 mmHg 49%
    14:00 +21°C° 0 mm 2 mps 748 mmHg 47%
    15:00 +21°C° 0 mm 2 mps 748 mmHg 53%
    16:00 +21°C° 0 mm 2 mps 748 mmHg 59%
    17:00 +21°C° 0 mm 1 mps 747 mmHg 65%
    18:00 +19°C° 0 mm 1 mps 747 mmHg 71%
    19:00 +16°C° 0 mm 1 mps 747 mmHg 77%
    20:00 +14°C° 0 mm 1 mps 747 mmHg 83%
    21:00 +13°C° 0 mm 1 mps 747 mmHg 85%
    22:00 +13°C° 0 mm 1 mps 747 mmHg 87%
    23:00 +13°C° 0 mm 1 mps 747 mmHg 89%

    24 August, Saturday

    Time Temperature Precipitation Wind Pressure Humidity
    00:00 +12°C° 0 mm 1 mps 747 mmHg 90%
    01:00 +12°C° 0 mm 1 mps 747 mmHg 91%
    02:00 +12°C° 0 mm 1 mps 747 mmHg 92%
    03:00 +10°C° 0 mm 2 mps 747 mmHg 92%
    04:00 +10°C° 0 mm 2 mps 747 mmHg 92%
    05:00 +10°C° 0 mm 2 mps 747 mmHg 92%
    06:00 +13°C° 0 mm 2 mps 747 mmHg 85%
    07:00 +15°C° 0 mm 2 mps 747 mmHg 78%
    08:00 +17°C° 0 mm 3 mps 747 mmHg 71%
    09:00 +19°C° 0 mm 3 mps 747 mmHg 67%
    10:00 +20°C° 0 mm 3 mps 746 mmHg 63%
    11:00 +22°C° 0 mm 4 mps 746 mmHg 58%
    12:00 +22°C° 0 mm 4 mps 746 mmHg 58%
    13:00 +22°C° 0 mm 4 mps 746 mmHg 57%
    14:00 +22°C° 0 mm 4 mps 745 mmHg 56%
    15:00 +22°C° 0 mm 4 mps 745 mmHg 60%
    16:00 +21°C° 0 mm 3 mps 745 mmHg 64%
    17:00 +21°C° 0 mm 3 mps 744 mmHg 69%
    18:00 +19°C° 0 mm 3 mps 744 mmHg 75%
    19:00 +17°C° 0 mm 3 mps 744 mmHg 80%
    20:00 +16°C° 0 mm 3 mps 744 mmHg 86%
    21:00 +14°C° 0 mm 3 mps 744 mmHg 88%
    22:00 +14°C° 0 mm 3 mps 744 mmHg 90%
    23:00 +14°C° 0 mm 3 mps 744 mmHg 91%

    25 August, Sunday

    Time Temperature Precipitation Wind Pressure Humidity
    00:00 +14°C° 0 mm 2 mps 744 mmHg 93%
    01:00 +14°C° 0 mm 2 mps 744 mmHg 95%
    02:00 +14°C° 0 mm 2 mps 743 mmHg 96%
    03:00 +13°C° 0 mm 2 mps 744 mmHg 97%
    04:00 +13°C° 0 mm 2 mps 744 mmHg 97%
    05:00 +13°C° 0 mm 2 mps 744 mmHg 98%
    06:00 +14°C° 0 mm 2 mps 744 mmHg 93%
    07:00 +15°C° 0 mm 2 mps 744 mmHg 88%
    08:00 +16°C° 0 mm 3 mps 744 mmHg 83%
    09:00 +18°C° 0 mm 3 mps 745 mmHg 74%
    10:00 +19°C° 0 mm 3 mps 745 mmHg 65%
    11:00 +20°C° 0 mm 3 mps 745 mmHg 55%
    12:00 +20°C° 0 mm 3 mps 745 mmHg 55%
    13:00 +20°C° 0 mm 3 mps 746 mmHg 54%
    14:00 +21°C° 0 mm 3 mps 746 mmHg 53%
    15:00 +20°C° 0 mm 3 mps 746 mmHg 58%
    16:00 +20°C° 0 mm 3 mps 746 mmHg 62%
    17:00 +19°C° 0 mm 2 mps 746 mmHg 67%
    18:00 +17°C° 0 mm 2 mps 746 mmHg 75%
    19:00 +15°C° 0 mm 2 mps 747 mmHg 84%
    20:00 +13°C° 0 mm 1 mps 747 mmHg 92%
    21:00 +12°C° 0 mm 1 mps 747 mmHg 93%
    22:00 +12°C° 0 mm 1 mps 748 mmHg 94%
    23:00 +11°C° 0 mm 1 mps 748 mmHg 95%

    26 August, Monday

    Time Temperature Precipitation Wind Pressure Humidity
    00:00 +10°C° 0 mm 1 mps 748 mmHg 95%
    01:00 +10°C° 0 mm 1 mps 748 mmHg 95%
    02:00 +9°C° 0 mm 0 mps 749 mmHg 95%
    03:00 +9°C° 0 mm 0 mps 749 mmHg 95%
    04:00 +8°C° 0 mm 0 mps 749 mmHg 95%
    05:00 +8°C° 0 mm 0 mps 749 mmHg 96%
    06:00 +10°C° 0 mm 0 mps 749 mmHg 90%
    07:00 +12°C° 0 mm 0 mps 749 mmHg 84%
    08:00 +14°C° 0 mm 0 mps 749 mmHg 78%
    09:00 +16°C° 0 mm 0 mps 749 mmHg 71%
    10:00 +17°C° 0 mm 0 mps 749 mmHg 64%
    11:00 +21°C° 0 mm 1 mps 749 mmHg 56%
    12:00 +21°C° 0 mm 1 mps 749 mmHg 53%
    13:00 +21°C° 0 mm 1 mps 748 mmHg 50%
    14:00 +22°C° 0 mm 1 mps 748 mmHg 47%
    15:00 +21°C° 0 mm 1 mps 748 mmHg 53%
    16:00 +21°C° 0 mm 1 mps 747 mmHg 58%
    17:00 +20°C° 0 mm 1 mps 747 mmHg 63%
    18:00 +18°C° 0 mm 1 mps 747 mmHg 70%
    19:00 +15°C° 0 mm 1 mps 747 mmHg 77%
    20:00 +13°C° 0 mm 2 mps 747 mmHg 84%
    21:00 +13°C° 0 mm 2 mps 747 mmHg 86%
    22:00 +12°C° 0 mm 2 mps 747 mmHg 89%
    23:00 +12°C° 0 mm 2 mps 747 mmHg 92%
    Show more